| time (UTC) | temp C | wind direction | speed KPH | gust KPH | rain 1hr cm | rain 24hr cm | rain mn cm | humidity % | barometer mb |
| 20260906211747 | 32 | 189 | 29.0 | 40.2 | 0.00 | 0.38 | 0.38 | 46 | 1217.7 |
| 20260906211243 | 31 | 167 | 30.6 | 45.1 | 0.00 | 0.38 | 0.38 | 49 | 1217.7 |
| 20260906210738 | 31 | 160 | 24.1 | 43.5 | 0.00 | 0.38 | 0.38 | 53 | 1218.0 |
| 20260906210233 | 31 | 162 | 32.2 | 40.2 | 0.00 | 0.38 | 0.38 | 53 | 1218.1 |
| 20260906205727 | 31 | 155 | 24.1 | 45.1 | 0.00 | 0.38 | 0.38 | 53 | 1218.1 |
| 20260906205224 | 31 | 145 | 9.7 | 25.7 | 0.00 | 0.38 | 0.38 | 55 | 1218.1 |
| 20260906204724 | 31 | 114 | 8.0 | 27.4 | 0.00 | 0.38 | 0.38 | 57 | 1218.2 |
| 20260906204223 | 30 | 153 | 19.3 | 27.4 | 0.00 | 0.38 | 0.38 | 57 | 1218.2 |
| 20260906203723 | 31 | 158 | 27.4 | 41.8 | 0.00 | 0.38 | 0.38 | 56 | 1218.6 |
| 20260906203218 | 31 | 149 | 16.1 | 32.2 | 0.00 | 0.38 | 0.38 | 56 | 1218.5 |
| 20260906202715 | 31 | 98 | 6.4 | 32.2 | 0.00 | 0.38 | 0.38 | 56 | 1218.4 |
| 20260906202214 | 30 | 155 | 29.0 | 49.9 | 0.00 | 0.38 | 0.38 | 55 | 1218.9 |
| 20260906201710 | 30 | 150 | 20.9 | 43.5 | 0.00 | 0.38 | 0.38 | 55 | 1218.6 |
| 20260906201209 | 31 | 168 | 24.1 | 38.6 | 0.00 | 0.38 | 0.38 | 51 | 1218.6 |
| 20260906200705 | 31 | 155 | 20.9 | 32.2 | 0.00 | 0.38 | 0.38 | 49 | 1218.6 |
| 20260906200200 | 31 | 157 | 19.3 | 32.2 | 0.00 | 0.38 | 0.38 | 48 | 1218.8 |
| 20260906195656 | 31 | 175 | 24.1 | 40.2 | 0.00 | 0.38 | 0.38 | 47 | 1218.6 |
| 20260906195152 | 31 | 160 | 20.9 | 33.8 | 0.00 | 0.38 | 0.38 | 47 | 1218.6 |
| 20260906194648 | 31 | 177 | 24.1 | 45.1 | 0.00 | 0.38 | 0.38 | 46 | 1218.8 |
| 20260906194143 | 31 | 163 | 20.9 | 33.8 | 0.00 | 0.38 | 0.38 | 47 | 1218.6 |
| 20260906193638 | 31 | 169 | 24.1 | 27.4 | 0.00 | 0.38 | 0.38 | 47 | 1218.8 |
| 20260906193133 | 31 | 168 | 19.3 | 38.6 | 0.00 | 0.38 | 0.38 | 48 | 1218.8 |
| 20260906192629 | 31 | 176 | 24.1 | 33.8 | 0.00 | 0.38 | 0.38 | 48 | 1218.9 |
| 20260906192128 | 30 | 168 | 20.9 | 25.7 | 0.00 | 0.38 | 0.38 | 51 | 1219.0 |
| 20260906191623 | 30 | 166 | 12.9 | 27.4 | 0.00 | 0.38 | 0.38 | 53 | 1218.9 |
| 20260906191122 | 30 | 162 | 30.6 | 32.2 | 0.00 | 0.38 | 0.38 | 52 | 1219.2 |
| 20260906190622 | 30 | 165 | 19.3 | 35.4 | 0.00 | 0.38 | 0.38 | 52 | 1219.1 |
| 20260906190117 | 30 | 163 | 24.1 | 29.0 | 0.00 | 0.38 | 0.38 | 53 | 1219.3 |
| 20260906185616 | 30 | 147 | 8.0 | 25.7 | 0.00 | 0.38 | 0.38 | 55 | 1219.3 |
| 20260906185115 | 30 | 160 | 16.1 | 30.6 | 0.00 | 0.38 | 0.38 | 54 | 1219.5 |
| 20260906184610 | 30 | 134 | 3.2 | 24.1 | 0.00 | 0.38 | 0.38 | 56 | 1219.5 |
| 20260906184106 | 30 | 140 | 9.7 | 24.1 | 0.00 | 0.38 | 0.38 | 55 | 1219.5 |
| 20260906183601 | 29 | 161 | 17.7 | 25.7 | 0.00 | 0.38 | 0.38 | 53 | 1219.6 |
| 20260906183057 | 29 | 132 | 11.3 | 27.4 | 0.00 | 0.38 | 0.38 | 53 | 1219.5 |
| 20260906182552 | 29 | 116 | 6.4 | 22.5 | 0.00 | 0.38 | 0.38 | 55 | 1219.9 |
| 20260906182048 | 28 | 100 | 9.7 | 20.9 | 0.00 | 0.38 | 0.38 | 57 | 1219.8 |
| 20260906181544 | 28 | 109 | 19.3 | 27.4 | 0.00 | 0.38 | 0.38 | 55 | 1219.8 |
| 20260906181039 | 28 | 125 | 12.9 | 20.9 | 0.00 | 0.38 | 0.38 | 56 | 1219.7 |
| 20260906180534 | 28 | 133 | 4.8 | 25.7 | 0.00 | 0.38 | 0.38 | 58 | 1220.0 |
| 20260906180033 | 28 | 104 | 24.1 | 25.7 | 0.00 | 0.38 | 0.38 | 57 | 1219.9 |
| 20260906175532 | 27 | 114 | 12.9 | 30.6 | 0.00 | 0.38 | 0.38 | 58 | 1220.0 |
| 20260906175032 | 27 | 111 | 17.7 | 29.0 | 0.00 | 0.38 | 0.38 | 59 | 1220.0 |
| 20260906174530 | 27 | 102 | 12.9 | 27.4 | 0.00 | 0.38 | 0.38 | 60 | 1220.5 |
| 20260906174025 | 27 | 112 | 14.5 | 22.5 | 0.00 | 0.38 | 0.38 | 62 | 1220.4 |
| 20260906173520 | 26 | 116 | 14.5 | 29.0 | 0.00 | 0.38 | 0.38 | 62 | 1220.4 |
| 20260906173016 | 26 | 112 | 27.4 | 37.0 | 0.00 | 0.38 | 0.38 | 60 | 1220.6 |
| 20260906172511 | 26 | 104 | 29.0 | 32.2 | 0.00 | 0.38 | 0.38 | 61 | 1220.6 |
| 20260906172006 | 26 | 112 | 19.3 | 25.7 | 0.00 | 0.38 | 0.38 | 63 | 1220.7 |
| 20260906171501 | 26 | 102 | 19.3 | 35.4 | 0.00 | 0.38 | 0.38 | 61 | 1220.6 |
| 20260906170956 | 26 | 107 | 29.0 | 35.4 | 0.00 | 0.38 | 0.38 | 59 | 1220.5 |
| 20260906170452 | 26 | 115 | 20.9 | 33.8 | 0.00 | 0.38 | 0.38 | 58 | 1220.2 |
| 20260906165949 | 26 | 99 | 11.3 | 35.4 | 0.00 | 0.38 | 0.38 | 58 | 1220.3 |
| 20260906165448 | 26 | 96 | 16.1 | 33.8 | 0.00 | 0.38 | 0.38 | 57 | 1220.2 |
| 20260906164943 | 26 | 103 | 24.1 | 40.2 | 0.00 | 0.38 | 0.38 | 57 | 1220.0 |
| 20260906164442 | 26 | 108 | 20.9 | 37.0 | 0.00 | 0.38 | 0.38 | 55 | 1220.4 |
| 20260906163939 | 26 | 92 | 32.2 | 32.2 | 0.00 | 0.38 | 0.38 | 57 | 1220.3 |
| 20260906163434 | 25 | 105 | 16.1 | 33.8 | 0.00 | 0.38 | 0.38 | 58 | 1220.3 |
| 20260906162932 | 25 | 94 | 30.6 | 38.6 | 0.00 | 0.38 | 0.38 | 54 | 1220.3 |
| 20260906162431 | 25 | 103 | 27.4 | 35.4 | 0.00 | 0.38 | 0.38 | 54 | 1220.0 |
| 20260906161926 | 25 | 107 | 14.5 | 25.7 | 0.00 | 0.38 | 0.38 | 57 | 1220.0 |
| 20260906161426 | 24 | 99 | 20.9 | 35.4 | 0.00 | 0.38 | 0.38 | 60 | 1220.4 |
| 20260906160925 | 23 | 92 | 35.4 | 41.8 | 0.00 | 0.38 | 0.38 | 61 | 1220.3 |
| 20260906160418 | 23 | 111 | 27.4 | 37.0 | 0.00 | 0.38 | 0.38 | 62 | 1220.3 |
| 20260906155916 | 23 | 107 | 27.4 | 41.8 | 0.00 | 0.38 | 0.38 | 63 | 1220.2 |
| 20260906155410 | 22 | 101 | 25.7 | 38.6 | 0.00 | 0.38 | 0.38 | 69 | 1220.6 |
| 20260906154907 | 22 | 105 | 19.3 | 33.8 | 0.00 | 0.38 | 0.38 | 71 | 1220.7 |
| 20260906154401 | 22 | 108 | 24.1 | 35.4 | 0.00 | 0.38 | 0.38 | 72 | 1221.1 |
| 20260906153900 | 21 | 97 | 17.7 | 32.2 | 0.00 | 0.38 | 0.38 | 75 | 1221.3 |
| 20260906153359 | 21 | 107 | 24.1 | 30.6 | 0.00 | 0.38 | 0.38 | 76 | 1221.6 |
| 20260906152854 | 21 | 102 | 22.5 | 27.4 | 0.00 | 0.38 | 0.38 | 77 | 1221.6 |
| 20260906152354 | 21 | 93 | 24.1 | 27.4 | 0.00 | 0.38 | 0.38 | 79 | 1221.9 |
| 20260906151854 | 21 | 95 | 14.5 | 24.1 | 0.00 | 0.38 | 0.38 | 85 | 1222.5 |
| 20260906151349 | 20 | 107 | 17.7 | 24.1 | 0.00 | 0.38 | 0.38 | 87 | 1222.4 |
| 20260906150845 | 20 | 99 | 12.9 | 20.9 | 0.00 | 0.38 | 0.38 | 87 | 1222.0 |
| 20260906150340 | 20 | 94 | 9.7 | 17.7 | 0.00 | 0.38 | 0.38 | 86 | 1222.0 |
| 20260906145840 | 20 | 93 | 12.9 | 16.1 | 0.00 | 0.38 | 0.38 | 88 | 1222.1 |
| 20260906145338 | 20 | 114 | 12.9 | 16.1 | 0.00 | 0.38 | 0.38 | 90 | 1222.3 |
| 20260906144833 | 19 | 92 | 14.5 | 17.7 | 0.00 | 0.38 | 0.38 | 91 | 1222.3 |
| 20260906144328 | 19 | 114 | 14.5 | 20.9 | 0.00 | 0.38 | 0.38 | 91 | 1222.4 |
| 20260906143828 | 19 | 87 | 16.1 | 17.7 | 0.00 | 0.38 | 0.38 | 93 | 1222.4 |
| 20260906143325 | 18 | 189 | 3.2 | 12.9 | 0.00 | 0.38 | 0.38 | 93 | 1221.8 |
| 20260906142820 | 18 | 111 | 12.9 | 17.7 | 0.00 | 0.38 | 0.38 | 93 | 1221.9 |
| 20260906142315 | 18 | 94 | 12.9 | 16.1 | 0.00 | 0.38 | 0.38 | 94 | 1222.4 |
| 20260906141814 | 18 | 101 | 9.7 | 14.5 | 0.00 | 0.38 | 0.38 | 93 | 1222.0 |
| 20260906141309 | 18 | 91 | 11.3 | 16.1 | 0.00 | 0.38 | 0.38 | 93 | 1222.3 |
| 20260906140808 | 18 | 76 | 11.3 | 14.5 | 0.05 | 0.38 | 0.38 | 93 | 1222.6 |
| 20260906140303 | 18 | 79 | 8.0 | 9.7 | 0.18 | 0.38 | 0.38 | 93 | 1223.1 |
| 20260906135801 | 18 | 93 | 6.4 | 6.4 | 0.30 | 0.38 | 0.38 | 92 | 1223.2 |
| 20260906135255 | 18 | 203 | 6.4 | 9.7 | 0.13 | 0.36 | 0.36 | 92 | 1223.4 |
| 20260906134751 | 18 | 243 | 9.7 | 17.7 | 0.00 | 0.33 | 0.33 | 93 | 1223.4 |
| 20260906134246 | 18 | 138 | 3.2 | 6.4 | 0.00 | 0.33 | 0.33 | 93 | 1222.6 |
| 20260906133742 | 18 | 269 | 4.8 | 4.8 | 0.00 | 0.33 | 0.33 | 93 | 1222.6 |
| 20260906133237 | 18 | 282 | 16.1 | 20.9 | 0.00 | 0.33 | 0.33 | 94 | 1222.5 |
| 20260906132732 | 18 | 264 | 12.9 | 12.9 | 0.00 | 0.33 | 0.33 | 94 | 1221.9 |
| 20260906132228 | 18 | 107 | 11.3 | 17.7 | 0.00 | 0.33 | 0.33 | 93 | 1221.2 |
| 20260906131723 | 18 | 103 | 12.9 | 17.7 | 0.00 | 0.33 | 0.33 | 93 | 1220.7 |
| 20260906131218 | 18 | 108 | 12.9 | 16.1 | 0.00 | 0.33 | 0.33 | 93 | 1221.0 |
| 20260906130714 | 18 | 130 | 3.2 | 8.0 | 1.27 | 0.33 | 0.33 | 92 | 1221.1 |
| 20260906130209 | 18 | 67 | 14.5 | 17.7 | 1.85 | 0.33 | 0.33 | 91 | 1220.7 |
| 20260906125707 | 18 | 186 | 16.1 | 17.7 | 0.48 | 0.10 | 0.10 | 87 | 1221.4 |
| 20260906125205 | 19 | 103 | 12.9 | 16.1 | 0.00 | 0.00 | 0.00 | 84 | 1221.0 |
| 20260906124701 | 20 | 181 | 6.4 | 12.9 | 0.00 | 0.00 | 0.00 | 80 | 1220.7 |
| 20260906124156 | 18 | 160 | 35.4 | 51.5 | 0.00 | 0.00 | 0.00 | 92 | 1221.4 |
| 20260906123655 | 18 | 193 | 12.9 | 12.9 | 0.05 | 0.00 | 0.00 | 93 | 1220.5 |
| 20260906123150 | 17 | 2 | 19.3 | 37.0 | 0.05 | 0.00 | 0.00 | 92 | 1219.5 |
| 20260906122649 | 17 | 8 | 33.8 | 38.6 | 0.00 | 0.00 | 0.00 | 92 | 1220.2 |
| 20260906122145 | 17 | 354 | 14.5 | 14.5 | 0.00 | 0.00 | 0.00 | 92 | 1222.3 |
| 20260906121641 | 17 | 52 | 3.2 | 3.2 | 0.00 | 0.00 | 0.00 | 93 | 1221.8 |
| 20260906121137 | 17 | 237 | 4.8 | 9.7 | 0.00 | 0.00 | 0.00 | 93 | 1222.1 |
| 20260906120633 | 17 | 229 | 0.0 | 1.6 | 0.00 | 0.00 | 0.00 | 93 | 1222.0 |
| 20260906120130 | 17 | 76 | 3.2 | 3.2 | 0.00 | 0.00 | 0.00 | 93 | 1221.6 |
| 20260906115630 | 17 | 129 | 0.0 | 3.2 | 0.00 | 0.00 | 0.00 | 93 | 1221.6 |
| 20260906115126 | 17 | 114 | 3.2 | 6.4 | 0.00 | 0.00 | 0.00 | 92 | 1221.6 |
| 20260906114625 | 17 | 178 | 3.2 | 6.4 | 0.00 | 0.00 | 0.00 | 92 | 1221.4 |
| 20260906114120 | 17 | 141 | 4.8 | 4.8 | 0.00 | 0.00 | 0.00 | 92 | 1221.3 |
| 20260906113620 | 17 | 260 | 6.4 | 6.4 | 0.00 | 0.00 | 0.00 | 92 | 1221.9 |
| 20260906113120 | 17 | 91 | 4.8 | 9.7 | 0.00 | 0.00 | 0.00 | 92 | 1221.3 |
| 20260906112620 | 17 | 152 | 3.2 | 6.4 | 0.00 | 0.00 | 0.00 | 92 | 1221.4 |
| 20260906112117 | 17 | 119 | 6.4 | 9.7 | 0.00 | 0.00 | 0.00 | 93 | 1221.7 |
| 20260906111616 | 17 | 143 | 8.0 | 11.3 | 0.00 | 0.00 | 0.00 | 92 | 1221.2 |
| 20260906111111 | 17 | 101 | 9.7 | 16.1 | 0.00 | 0.00 | 0.00 | 92 | 1221.1 |
| 20260906110612 | 17 | 96 | 6.4 | 8.0 | 0.00 | 0.00 | 0.00 | 92 | 1221.2 |
| 20260906110112 | 17 | 132 | 3.2 | 6.4 | 0.00 | 0.00 | 0.00 | 91 | 1221.2 |
| 20260906105606 | 17 | 105 | 6.4 | 9.7 | 0.00 | 0.00 | 0.00 | 91 | 1221.4 |
| 20260906105103 | 17 | 98 | 6.4 | 6.4 | 0.00 | 0.00 | 0.00 | 91 | 1221.2 |
| 20260906104601 | 17 | 89 | 4.8 | 6.4 | 0.00 | 0.00 | 0.00 | 91 | 1221.4 |
| 20260906104055 | 17 | 53 | 4.8 | 4.8 | 0.00 | 0.00 | 0.00 | 91 | 1221.2 |
| 20260906103554 | 17 | 24 | 3.2 | 6.4 | 0.00 | 0.00 | 0.00 | 91 | 1221.4 |
| 20260906103049 | 17 | 72 | 4.8 | 4.8 | 0.00 | 0.00 | 0.00 | 91 | 1221.6 |
| 20260906102549 | 17 | 22 | 1.6 | 3.2 | 0.00 | 0.00 | 0.00 | 91 | 1221.2 |
| 20260906102045 | 17 | 316 | 3.2 | 3.2 | 0.00 | 0.00 | 0.00 | 92 | 1221.2 |
| 20260906101545 | 17 | 34 | 3.2 | 3.2 | 0.00 | 0.00 | 0.00 | 92 | 1221.3 |
| 20260906101039 | 16 | 352 | 3.2 | 3.2 | 0.00 | 0.00 | 0.00 | 92 | 1221.3 |
| 20260906100535 | 16 | 77 | 3.2 | 6.4 | 0.00 | 0.00 | 0.00 | 91 | 1221.3 |
| 20260906100036 | 16 | 99 | 6.4 | 8.0 | 0.00 | 0.00 | 0.00 | 90 | 1221.1 |
| 20260906095530 | 17 | 96 | 9.7 | 12.9 | 0.00 | 0.00 | 0.00 | 89 | 1221.2 |
| 20260906095026 | 17 | 106 | 8.0 | 14.5 | 0.00 | 0.00 | 0.00 | 89 | 1220.9 |
| 20260906094524 | 17 | 108 | 8.0 | 14.5 | 0.00 | 0.00 | 0.00 | 88 | 1221.0 |
| 20260906094020 | 17 | 108 | 11.3 | 17.7 | 0.00 | 0.00 | 0.00 | 89 | 1221.0 |
| 20260906093516 | 17 | 98 | 14.5 | 17.7 | 0.00 | 0.00 | 0.00 | 90 | 1220.7 |
| 20260906093017 | 16 | 101 | 9.7 | 9.7 | 0.00 | 0.00 | 0.00 | 90 | 1220.9 |
| 20260906092517 | 16 | 112 | 6.4 | 9.7 | 0.00 | 0.00 | 0.00 | 89 | 1220.7 |
| 20260906092012 | 16 | 118 | 8.0 | 9.7 | 0.00 | 0.00 | 0.00 | 89 | 1220.9 |
| 20260906091508 | 16 | 103 | 6.4 | 8.0 | 0.00 | 0.00 | 0.00 | 90 | 1220.6 |
| 20260906091004 | 16 | 101 | 6.4 | 8.0 | 0.00 | 0.00 | 0.00 | 90 | 1220.7 |
| 20260906090459 | 16 | 81 | 6.4 | 9.7 | 0.00 | 0.00 | 0.00 | 90 | 1220.9 |
| 20260906085959 | 16 | 86 | 6.4 | 6.4 | 0.00 | 0.00 | 0.00 | 89 | 1220.7 |
| 20260906085458 | 15 | 81 | 4.8 | 6.4 | 0.00 | 0.00 | 0.00 | 88 | 1220.7 |
| 20260906084957 | 16 | 84 | 8.0 | 8.0 | 0.00 | 0.00 | 0.00 | 86 | 1220.6 |
| 20260906084452 | 16 | 133 | 3.2 | 8.0 | 0.00 | 0.00 | 0.00 | 87 | 1221.1 |
| 20260906083951 | 16 | 89 | 9.7 | 11.3 | 0.00 | 0.00 | 0.00 | 87 | 1220.7 |
| 20260906083447 | 16 | 107 | 6.4 | 11.3 | 0.00 | 0.00 | 0.00 | 88 | 1220.6 |
| 20260906082946 | 15 | 105 | 11.3 | 12.9 | 0.00 | 0.00 | 0.00 | 88 | 1220.7 |
| 20260906082441 | 15 | 86 | 11.3 | 14.5 | 0.00 | 0.00 | 0.00 | 88 | 1220.5 |
| 20260906081937 | 15 | 95 | 8.0 | 9.7 | 0.00 | 0.00 | 0.00 | 87 | 1220.6 |
| 20260906081432 | 15 | 95 | 3.2 | 12.9 | 0.00 | 0.00 | 0.00 | 86 | 1220.6 |
| 20260906080929 | 15 | 94 | 11.3 | 11.3 | 0.00 | 0.00 | 0.00 | 84 | 1220.3 |
| 20260906080425 | 15 | 87 | 1.6 | 1.6 | 0.00 | 0.00 | 0.00 | 82 | 1220.2 |
| 20260906075925 | 15 | 98 | 0.0 | 1.6 | 0.00 | 0.00 | 0.00 | 82 | 1220.3 |
| 20260906075420 | 15 | 146 | 0.0 | 0.0 | 0.00 | 0.00 | 0.00 | 82 | 1220.2 |
| 20260906074915 | 16 | 113 | 0.0 | 1.6 | 0.00 | 0.00 | 0.00 | 81 | 1220.3 |
| 20260906074415 | 16 | 129 | 0.0 | 1.6 | 0.00 | 0.00 | 0.00 | 81 | 1220.2 |
| 20260906073914 | 16 | 147 | 0.0 | 1.6 | 0.00 | 0.00 | 0.00 | 82 | 1220.3 |
| 20260906073408 | 16 | 135 | 0.0 | 0.0 | 0.00 | 0.00 | 0.00 | 81 | 1220.2 |
| 20260906072905 | 16 | 157 | 0.0 | 3.2 | 0.00 | 0.00 | 0.00 | 83 | 1220.4 |
| 20260906072359 | 16 | 167 | 3.2 | 3.2 | 0.00 | 0.00 | 0.00 | 80 | 1220.4 |
| 20260906071856 | 16 | 160 | 0.0 | 3.2 | 0.00 | 0.00 | 0.00 | 78 | 1220.4 |
| 20260906071351 | 17 | 154 | 0.0 | 1.6 | 0.00 | 0.00 | 0.00 | 79 | 1220.4 |
| 20260906070847 | 17 | 217 | 0.0 | 0.0 | 0.00 | 0.00 | 0.00 | 80 | 1220.5 |
| 20260906070343 | 17 | 172 | 1.6 | 3.2 | 0.00 | 0.00 | 0.00 | 79 | 1220.5 |
| 20260906065838 | 17 | 142 | 1.6 | 1.6 | 0.00 | 0.00 | 0.00 | 78 | 1220.4 |
| 20260906065332 | 17 | 140 | 0.0 | 3.2 | 0.00 | 0.00 | 0.00 | 77 | 1220.4 |
| 20260906064828 | 18 | 179 | 3.2 | 3.2 | 0.00 | 0.00 | 0.00 | 75 | 1220.6 |
| 20260906064325 | 18 | 135 | 0.0 | 0.0 | 0.00 | 0.00 | 0.00 | 74 | 1220.6 |
| 20260906063824 | 18 | 250 | 0.0 | 1.6 | 0.00 | 0.00 | 0.00 | 75 | 1220.5 |
| 20260906063320 | 18 | 269 | 0.0 | 3.2 | 0.00 | 0.00 | 0.00 | 75 | 1220.5 |
| 20260906062815 | 18 | 326 | 3.2 | 3.2 | 0.00 | 0.00 | 0.00 | 75 | 1220.9 |
| 20260906062314 | 18 | 316 | 3.2 | 3.2 | 0.00 | 0.00 | 0.00 | 74 | 1220.7 |
| 20260906061810 | 18 | 44 | 0.0 | 0.0 | 0.00 | 0.00 | 0.00 | 74 | 1220.9 |
| 20260906061307 | 19 | 169 | 0.0 | 0.0 | 0.00 | 0.00 | 0.00 | 71 | 1220.7 |
| 20260906060806 | 20 | 182 | 3.2 | 3.2 | 0.00 | 0.00 | 0.00 | 70 | 1220.9 |
| 20260906060305 | 20 | 189 | 1.6 | 1.6 | 0.00 | 0.00 | 0.00 | 70 | 1220.7 |
| 20260906055800 | 20 | 173 | 0.0 | 0.0 | 0.00 | 0.00 | 0.00 | 70 | 1221.0 |
| 20260906055255 | 20 | 180 | 0.0 | 0.0 | 0.00 | 0.00 | 0.00 | 68 | 1221.0 |
| 20260906054750 | 21 | 49 | 1.6 | 3.2 | 0.00 | 0.00 | 0.00 | 66 | 1221.1 |
| 20260906054246 | 20 | 83 | 3.2 | 6.4 | 0.00 | 0.00 | 0.00 | 68 | 1221.1 |
| 20260906053742 | 20 | 32 | 3.2 | 3.2 | 0.00 | 0.00 | 0.00 | 69 | 1221.0 |
| 20260906053238 | 20 | 283 | 0.0 | 1.6 | 0.00 | 0.00 | 0.00 | 68 | 1221.1 |
| 20260906052732 | 20 | 293 | 0.0 | 1.6 | 0.00 | 0.00 | 0.00 | 67 | 1221.1 |
| 20260906052229 | 21 | 166 | 0.0 | 1.6 | 0.00 | 0.00 | 0.00 | 66 | 1221.3 |
| 20260906051725 | 21 | 43 | 0.0 | 3.2 | 0.00 | 0.00 | 0.00 | 65 | 1221.2 |
| 20260906051225 | 21 | 68 | 3.2 | 4.8 | 0.00 | 0.00 | 0.00 | 64 | 1221.2 |
| 20260906050720 | 22 | 100 | 3.2 | 3.2 | 0.00 | 0.00 | 0.00 | 63 | 1221.1 |
| 20260906050216 | 22 | 206 | 1.6 | 3.2 | 0.00 | 0.00 | 0.00 | 63 | 1221.2 |
| 20260906045714 | 21 | 235 | 3.2 | 6.4 | 0.00 | 0.00 | 0.00 | 64 | 1221.1 |
| 20260906045209 | 21 | 250 | 4.8 | 8.0 | 0.00 | 0.00 | 0.00 | 65 | 1221.2 |
| 20260906044705 | 21 | 255 | 3.2 | 8.0 | 0.00 | 0.00 | 0.00 | 66 | 1221.1 |
| 20260906044200 | 20 | 235 | 4.8 | 8.0 | 0.00 | 0.00 | 0.00 | 70 | 1220.9 |
| 20260906043656 | 20 | 221 | 3.2 | 4.8 | 0.00 | 0.00 | 0.00 | 71 | 1221.0 |
| 20260906043151 | 20 | 188 | 3.2 | 6.4 | 0.00 | 0.00 | 0.00 | 69 | 1221.0 |
| 20260906042651 | 20 | 161 | 6.4 | 9.7 | 0.00 | 0.00 | 0.00 | 69 | 1220.9 |
| 20260906042150 | 20 | 161 | 9.7 | 11.3 | 0.00 | 0.00 | 0.00 | 69 | 1220.7 |
| 20260906041647 | 20 | 278 | 1.6 | 6.4 | 0.00 | 0.00 | 0.00 | 70 | 1220.3 |
| 20260906041141 | 20 | 280 | 4.8 | 6.4 | 0.00 | 0.00 | 0.00 | 69 | 1220.4 |
| 20260906040637 | 21 | 283 | 6.4 | 6.4 | 0.00 | 0.00 | 0.00 | 67 | 1220.3 |
| 20260906040132 | 21 | 231 | 3.2 | 4.8 | 0.00 | 0.00 | 0.00 | 67 | 1220.4 |
| 20260906035627 | 22 | 122 | 3.2 | 3.2 | 0.00 | 0.00 | 0.00 | 64 | 1220.3 |
| 20260906035123 | 21 | 156 | 6.4 | 6.4 | 0.00 | 0.00 | 0.00 | 66 | 1220.5 |
| 20260906034623 | 21 | 184 | 1.6 | 1.6 | 0.00 | 0.00 | 0.00 | 66 | 1219.9 |
| 20260906034118 | 22 | 241 | 3.2 | 3.2 | 0.00 | 0.00 | 0.00 | 64 | 1220.0 |
| 20260906033614 | 22 | 89 | 0.0 | 1.6 | 0.00 | 0.00 | 0.00 | 62 | 1219.9 |
| 20260906033109 | 22 | 267 | 1.6 | 3.2 | 0.00 | 0.00 | 0.00 | 62 | 1219.9 |
| 20260906032606 | 22 | 271 | 3.2 | 3.2 | 0.00 | 0.00 | 0.00 | 62 | 1219.9 |
| 20260906032105 | 22 | 290 | 4.8 | 4.8 | 0.00 | 0.00 | 0.00 | 63 | 1219.9 |
| 20260906031601 | 22 | 315 | 3.2 | 4.8 | 0.00 | 0.00 | 0.00 | 65 | 1219.9 |
| 20260906031056 | 22 | 290 | 3.2 | 6.4 | 0.00 | 0.00 | 0.00 | 66 | 1219.8 |
| 20260906030555 | 22 | 286 | 6.4 | 8.0 | 0.00 | 0.00 | 0.00 | 64 | 1219.8 |
| 20260906030055 | 23 | 327 | 1.6 | 1.6 | 0.00 | 0.00 | 0.00 | 61 | 1219.9 |
| 20260906025555 | 23 | 83 | 3.2 | 3.2 | 0.00 | 0.00 | 0.00 | 61 | 1219.7 |
| 20260906025054 | 23 | 103 | 3.2 | 3.2 | 0.00 | 0.00 | 0.00 | 60 | 1219.5 |
| 20260906024549 | 23 | 100 | 1.6 | 1.6 | 0.00 | 0.00 | 0.00 | 60 | 1219.9 |
| 20260906024049 | 24 | 237 | 0.0 | 0.0 | 0.00 | 0.00 | 0.00 | 59 | 1219.7 |
| 20260906023545 | 24 | 154 | 0.0 | 1.6 | 0.00 | 0.00 | 0.00 | 59 | 1219.8 |
| 20260906023040 | 23 | 146 | 1.6 | 3.2 | 0.00 | 0.00 | 0.00 | 58 | 1219.6 |
| 20260906022535 | 24 | 74 | 0.0 | 1.6 | 0.00 | 0.00 | 0.00 | 58 | 1219.5 |
| 20260906022030 | 25 | 85 | 3.2 | 3.2 | 0.00 | 0.00 | 0.00 | 56 | 1219.6 |
| 20260906021526 | 25 | 102 | 4.8 | 6.4 | 0.00 | 0.00 | 0.00 | 54 | 1219.6 |
| 20260906021025 | 25 | 106 | 4.8 | 6.4 | 0.00 | 0.00 | 0.00 | 53 | 1219.5 |
| 20260906020525 | 26 | 98 | 4.8 | 6.4 | 0.00 | 0.00 | 0.00 | 53 | 1219.5 |
| 20260906020025 | 26 | 127 | 3.2 | 4.8 | 0.00 | 0.00 | 0.00 | 53 | 1219.2 |
| 20260906015524 | 26 | 80 | 1.6 | 3.2 | 0.00 | 0.00 | 0.00 | 52 | 1219.3 |
| 20260906015024 | 27 | 66 | 3.2 | 4.8 | 0.00 | 0.00 | 0.00 | 50 | 1219.1 |
| 20260906014518 | 28 | 88 | 1.6 | 4.8 | 0.00 | 0.00 | 0.00 | 46 | 1219.2 |
| 20260906014014 | 28 | 176 | 3.2 | 3.2 | 0.00 | 0.00 | 0.00 | 45 | 1219.6 |
| 20260906013509 | 27 | 163 | 3.2 | 6.4 | 0.00 | 0.00 | 0.00 | 46 | 1219.2 |
| 20260906013005 | 28 | 12 | 6.4 | 8.0 | 0.00 | 0.00 | 0.00 | 49 | 1219.1 |
| 20260906012500 | 30 | 317 | 1.6 | 1.6 | 0.00 | 0.00 | 0.00 | 42 | 1219.2 |
| 20260906011959 | 30 | 207 | 3.2 | 3.2 | 0.00 | 0.00 | 0.00 | 39 | 1219.3 |
| 20260906011455 | 30 | 220 | 3.2 | 3.2 | 0.00 | 0.00 | 0.00 | 42 | 1219.2 |
| 20260906010950 | 30 | 237 | 0.0 | 1.6 | 0.00 | 0.00 | 0.00 | 40 | 1219.0 |
| 20260906010445 | 31 | 252 | 1.6 | 3.2 | 0.00 | 0.00 | 0.00 | 38 | 1219.3 |
| 20260906005942 | 31 | 249 | 0.0 | 3.2 | 0.00 | 0.00 | 0.00 | 41 | 1219.2 |
| 20260906005441 | 32 | 197 | 0.0 | 1.6 | 0.00 | 0.00 | 0.00 | 41 | 1219.1 |
| 20260906004940 | 32 | 202 | 0.0 | 1.6 | 0.00 | 0.00 | 0.00 | 37 | 1218.9 |
| 20260906004440 | 33 | 17 | 3.2 | 3.2 | 0.00 | 0.00 | 0.00 | 33 | 1218.9 |
| 20260906003936 | 34 | 339 | 0.0 | 1.6 | 0.00 | 0.00 | 0.00 | 32 | 1218.9 |
| 20260906003436 | 35 | 124 | 0.0 | 0.0 | 0.00 | 0.00 | 0.00 | 29 | 1218.8 |
| 20260906002931 | 34 | 147 | 0.0 | 0.0 | 0.00 | 0.00 | 0.00 | 29 | 1218.8 |
| 20260906002431 | 34 | 113 | 0.0 | 0.0 | 0.00 | 0.00 | 0.00 | 29 | 1219.0 |
| 20260906001926 | 33 | 99 | 0.0 | 3.2 | 0.00 | 0.00 | 0.00 | 30 | 1218.8 |
| 20260906001422 | 33 | 75 | 3.2 | 3.2 | 0.00 | 0.00 | 0.00 | 29 | 1218.5 |
| 20260906000917 | 34 | 65 | 3.2 | 3.2 | 0.00 | 0.00 | 0.00 | 30 | 1218.6 |
| 20260906000412 | 34 | 61 | 3.2 | 3.2 | 0.00 | 0.00 | 0.00 | 32 | 1218.6 |
| 20260905235907 | 35 | 80 | 3.2 | 4.8 | 0.00 | 0.00 | 0.00 | 31 | 1218.6 |
| 20260905235401 | 35 | 60 | 0.0 | 3.2 | 0.00 | 0.00 | 0.00 | 28 | 1218.5 |
| 20260905234856 | 36 | 129 | 0.0 | 1.6 | 0.00 | 0.00 | 0.00 | 27 | 1218.4 |
| 20260905234351 | 36 | 216 | 0.0 | 3.2 | 0.00 | 0.00 | 0.00 | 28 | 1218.5 |
| 20260905233846 | 35 | 337 | 1.6 | 1.6 | 0.00 | 0.00 | 0.00 | 27 | 1218.4 |
| 20260905233341 | 35 | 230 | 3.2 | 6.4 | 0.00 | 0.00 | 0.00 | 27 | 1218.3 |
| 20260905232840 | 36 | 206 | 3.2 | 6.4 | 0.00 | 0.00 | 0.00 | 27 | 1218.3 |
| 20260905232337 | 36 | 295 | 0.0 | 1.6 | 0.00 | 0.00 | 0.00 | 26 | 1218.1 |
| 20260905231832 | 35 | 317 | 3.2 | 3.2 | 0.00 | 0.00 | 0.00 | 28 | 1218.4 |
| 20260905231327 | 35 | 233 | 6.4 | 9.7 | 0.00 | 0.00 | 0.00 | 27 | 1218.3 |
| 20260905230824 | 36 | 248 | 1.6 | 3.2 | 0.00 | 0.00 | 0.00 | 28 | 1218.4 |
| 20260905230321 | 35 | 62 | 0.0 | 3.2 | 0.00 | 0.00 | 0.00 | 27 | 1218.3 |
| 20260905225821 | 35 | 311 | 1.6 | 6.4 | 0.00 | 0.00 | 0.00 | 27 | 1218.2 |
| 20260905225316 | 35 | 231 | 3.2 | 8.0 | 0.00 | 0.00 | 0.00 | 28 | 1218.4 |
| 20260905224816 | 35 | 208 | 6.4 | 8.0 | 0.00 | 0.00 | 0.00 | 29 | 1218.3 |
| 20260905224311 | 34 | 219 | 4.8 | 9.7 | 0.00 | 0.00 | 0.00 | 28 | 1218.4 |
| 20260905223806 | 35 | 202 | 6.4 | 8.0 | 0.00 | 0.00 | 0.00 | 29 | 1218.3 |
| 20260905223304 | 35 | 336 | 0.0 | 6.4 | 0.00 | 0.00 | 0.00 | 27 | 1218.4 |
| 20260905222759 | 35 | 219 | 6.4 | 6.4 | 0.00 | 0.00 | 0.00 | 28 | 1218.4 |
| 20260905222257 | 35 | 267 | 1.6 | 6.4 | 0.00 | 0.00 | 0.00 | 27 | 1218.4 |
| 20260905221754 | 35 | 224 | 3.2 | 6.4 | 0.00 | 0.00 | 0.00 | 27 | 1218.4 |
| 20260905221250 | 35 | 219 | 4.8 | 6.4 | 0.00 | 0.00 | 0.00 | 28 | 1218.5 |
| 20260905220746 | 35 | 163 | 8.0 | 8.0 | 0.00 | 0.00 | 0.00 | 28 | 1218.8 |
| 20260905220242 | 35 | 152 | 6.4 | 8.0 | 0.00 | 0.00 | 0.00 | 29 | 1218.5 |
| 20260905215741 | 34 | 191 | 4.8 | 6.4 | 0.00 | 0.00 | 0.00 | 29 | 1218.6 |
| 20260905215237 | 34 | 188 | 3.2 | 9.7 | 0.00 | 0.00 | 0.00 | 31 | 1218.8 |
| 20260905214733 | 34 | 81 | 0.0 | 4.8 | 0.00 | 0.00 | 0.00 | 30 | 1218.6 |
| 20260905214228 | 33 | 176 | 4.8 | 8.0 | 0.00 | 0.00 | 0.00 | 30 | 1218.6 |
| 20260905213723 | 34 | 208 | 9.7 | 12.9 | 0.00 | 0.00 | 0.00 | 30 | 1218.9 |
| 20260905213220 | 33 | 135 | 1.6 | 1.6 | 0.00 | 0.00 | 0.00 | 30 | 1218.8 |
| 20260905212715 | 34 | 180 | 12.9 | 12.9 | 0.00 | 0.00 | 0.00 | 30 | 1218.6 |
| 20260905212214 | 34 | 218 | 1.6 | 3.2 | 0.00 | 0.00 | 0.00 | 31 | 1218.9 |